TimeEDT,TemperatureF,Dew PointF,Humidity,Sea Level PressureIn,VisibilityMPH,Wind Direction,Wind SpeedMPH,Gust SpeedMPH,PrecipitationIn,Events,Conditions,WindDirDegrees,DateUTC
12:54 AM,46.9,44.1,90,30.22,10.0,Calm,Calm,-,N/A,,Overcast,0,2012-10-09 04:54:00
1:54 AM,46.9,44.1,90,30.22,10.0,Calm,Calm,-,0.00,,Overcast,0,2012-10-09 05:54:00
2:54 AM,46.9,44.1,90,30.21,10.0,Calm,Calm,-,0.00,Rain,Light Rain,0,2012-10-09 06:54:00
3:54 AM,48.0,44.1,86,30.22,10.0,Calm,Calm,-,0.01,,Overcast,0,2012-10-09 07:54:00
4:54 AM,48.0,45.0,89,30.21,10.0,NNE,3.5,-,0.00,,Overcast,20,2012-10-09 08:54:00
5:54 AM,48.0,45.0,89,30.20,10.0,North,4.6,-,0.00,,Overcast,360,2012-10-09 09:54:00
6:54 AM,48.9,46.0,90,30.20,10.0,NNE,4.6,-,0.00,Rain,Light Rain,30,2012-10-09 10:54:00
7:54 AM,48.9,46.0,90,30.21,10.0,North,3.5,-,0.01,,Overcast,360,2012-10-09 11:54:00
8:54 AM,50.0,46.9,89,30.20,10.0,NNE,4.6,-,N/A,,Overcast,30,2012-10-09 12:54:00
9:13 AM,51.8,46.4,82,30.21,10.0,NNE,3.5,-,N/A,,Overcast,20,2012-10-09 13:13:00
9:54 AM,52.0,48.0,86,30.21,10.0,NNE,3.5,-,N/A,,Overcast,20,2012-10-09 13:54:00
10:54 AM,52.0,48.0,86,30.20,4.0,NE,4.6,-,0.00,Rain,Light Rain,40,2012-10-09 14:54:00
11:54 AM,55.0,50.0,83,30.19,10.0,NNE,4.6,-,0.00,,Overcast,20,2012-10-09 15:54:00
12:54 PM,55.9,48.9,77,30.17,10.0,NNE,6.9,-,N/A,,Overcast,30,2012-10-09 16:54:00
1:54 PM,55.9,50.0,80,30.14,10.0,NNE,6.9,-,N/A,,Overcast,30,2012-10-09 17:54:00
2:54 PM,55.9,51.1,84,30.13,6.0,Calm,Calm,-,N/A,,Haze,0,2012-10-09 18:54:00
3:42 PM,55.4,51.8,88,30.14,4.0,Calm,Calm,-,0.00,Rain,Light Rain,0,2012-10-09 19:42:00
3:54 PM,55.0,52.0,89,30.13,5.0,Calm,Calm,-,0.00,Rain,Light Rain,0,2012-10-09 19:54:00
4:15 PM,55.4,51.8,88,30.14,9.0,Calm,Calm,-,0.00,Rain,Light Rain,0,2012-10-09 20:15:00
4:54 PM,55.0,53.1,93,30.13,10.0,Calm,Calm,-,0.00,,Overcast,0,2012-10-09 20:54:00
5:54 PM,55.0,53.1,93,30.12,10.0,Calm,Calm,-,N/A,,Overcast,0,2012-10-09 21:54:00
6:54 PM,55.0,53.1,93,30.11,10.0,Calm,Calm,-,N/A,,Overcast,0,2012-10-09 22:54:00
7:54 PM,55.0,53.1,93,30.12,10.0,Calm,Calm,-,0.01,,Overcast,0,2012-10-09 23:54:00
8:41 PM,55.4,53.6,94,30.11,10.0,Calm,Calm,-,N/A,,Overcast,0,2012-10-10 00:41:00
8:54 PM,55.0,53.1,93,30.11,10.0,Calm,Calm,-,N/A,,Overcast,0,2012-10-10 00:54:00
9:54 PM,54.0,54.0,100,30.10,3.0,NNE,3.5,-,0.00,,Overcast,30,2012-10-10 01:54:00
10:02 PM,53.6,53.6,100,30.11,2.5,Calm,Calm,-,N/A,,Overcast,0,2012-10-10 02:02:00
10:09 PM,53.6,53.6,100,30.10,4.0,Calm,Calm,-,N/A,,Overcast,0,2012-10-10 02:09:00
10:33 PM,53.6,53.6,100,30.10,2.5,NE,4.6,-,N/A,,Overcast,50,2012-10-10 02:33:00
10:54 PM,55.0,54.0,96,30.09,2.5,NE,4.6,-,N/A,,Overcast,50,2012-10-10 02:54:00
11:13 PM,55.4,53.6,94,30.09,2.5,Calm,Calm,-,N/A,,Overcast,0,2012-10-10 03:13:00
11:28 PM,55.4,53.6,94,30.08,1.5,Calm,Calm,-,N/A,,Overcast,0,2012-10-10 03:28:00
11:54 PM,55.0,54.0,96,30.08,1.2,Calm,Calm,-,N/A,,Overcast,0,2012-10-10 03:54:00